Weather History for Ft. Stewart, GA

Change the Weather History Date:

Wednesday, April 23, 2014

  Actual Average Record
Temperature  
Mean Temperature 71 °F -  
Max Temperature 83 °F 81 °F 95 °F (1970)
Min Temperature 59 °F 56 °F 38 °F (1993)
Cooling Degree Days 6    
Growing Degree Days 21 (Base 50)    
Moisture  
Dew Point 62 °F    
Average Humidity 87    
Maximum Humidity 100    
Minimum Humidity 47    
Precipitation  
Precipitation 0.01 in - - ()
Sea Level Pressure  
Sea Level Pressure 29.87 in    
Wind  
Wind Speed 5 mph (West)    
Max Wind Speed 12 mph    
Max Gust Speed 17 mph    
Visibility 10 miles    
Events      
Averages and records for this station are not official NWS values.
T = Trace of Precipitation, MM = Missing Value Source: NWS Daily Summary

Daily Weather History Graph

Daily Weather History Graph

Search for Another Location

Airport:

Trip Planner

Search our weather history database for the weather conditions in past years. The results will help you decide how hot, cold, wet, or windy it might be!

Date:

Astronomy

Apr. 23, 2014 Rise Set
Actual Time 6:48 AM EDT 8:00 PM EDT
Civil Twilight 6:23 AM EDT 8:26 PM EDT
Nautical Twilight 5:52 AM EDT 8:56 PM EDT
Astronomical Twilight 5:21 AM EDT 9:28 PM EDT
Moon 2:57 AM EDT (4/23) 2:28 PM EDT (4/23)
Length of Visible Light 14h 03m
Length of Day
13h 12m
Waning Crescent, 35% of the Moon is Illuminated
Apr 23
Waning Crescent
Apr 29
New
May 6
First Quarter
May 14
Full
May 21
Last Quarter

Hourly Weather History & Observations

Time (EDT) Temp. Heat Index Dew Point Humidity Pressure Visibility Wind Dir Wind Speed Gust Speed Precip Events Conditions
12:58 AM 62.4 °F - 62.4 °F 100% 29.84 in 10.0 mi West 4.6 mph - N/A   Partly Cloudy
1:08 AM 62.6 °F - 62.6 °F 100% 29.83 in 9.0 mi SW 3.5 mph - N/A   Clear
1:28 AM 62.6 °F - 62.6 °F 100% 29.83 in 10.0 mi West 2.3 mph - N/A   Clear
1:33 AM 62.6 °F - 62.6 °F 100% 29.82 in 8.0 mi WSW 3.5 mph - N/A   Clear
1:48 AM 60.8 °F - 60.8 °F 100% 29.82 in 10.0 mi WSW 4.6 mph - N/A   Clear
1:58 AM 61.3 °F - 61.3 °F 100% 29.83 in 10.0 mi WSW 5.8 mph - N/A   Clear
2:58 AM 61.3 °F - 61.3 °F 100% 29.82 in 10.0 mi West 4.6 mph - N/A   Clear
3:58 AM 61.3 °F - 61.3 °F 100% 29.82 in 10.0 mi West 5.8 mph - N/A   Clear
4:18 AM 60.8 °F - 60.8 °F 100% 29.81 in 9.0 mi WSW 5.8 mph - N/A   Clear
4:58 AM 60.6 °F - 60.6 °F 100% 29.83 in 9.0 mi WSW 5.8 mph - N/A   Clear
5:58 AM 60.3 °F - 60.3 °F 100% 29.83 in 8.0 mi WSW 5.8 mph - N/A   Clear
6:38 AM 59.0 °F - 59.0 °F 100% 29.84 in 7.0 mi West 4.6 mph - N/A   Clear
6:58 AM 60.1 °F - 60.1 °F 100% 29.86 in 8.0 mi WSW 4.6 mph - N/A   Clear
7:58 AM 61.3 °F - 61.3 °F 100% 29.89 in 10.0 mi WSW 4.6 mph - 0.01 in   Scattered Clouds
8:03 AM 60.8 °F - 60.8 °F 100% 29.88 in 10.0 mi WSW 4.6 mph - N/A   Mostly Cloudy
8:58 AM 62.4 °F - 62.4 °F 100% 29.90 in 8.0 mi West 8.1 mph - N/A   Overcast
9:38 AM 62.6 °F - 62.6 °F 100% 29.90 in 10.0 mi West 6.9 mph - N/A   Overcast
9:58 AM 63.9 °F - 63.9 °F 100% 29.92 in 10.0 mi Variable 5.8 mph - N/A   Overcast
10:18 AM 64.4 °F - 64.4 °F 100% 29.91 in 10.0 mi Variable 4.6 mph - N/A   Overcast
10:53 AM 68.0 °F - 66.2 °F 94% 29.92 in 10.0 mi Variable 6.9 mph - N/A   Scattered Clouds
10:58 AM 68.5 °F - 67.1 °F 95% 29.93 in 10.0 mi West 8.1 mph - N/A   Scattered Clouds
11:58 AM 73.6 °F - 66.0 °F 77% 29.92 in 10.0 mi Variable 4.6 mph - N/A   Clear
12:58 PM 77.9 °F - 65.3 °F 65% 29.90 in 10.0 mi WNW 8.1 mph - N/A   Clear
1:58 PM 79.7 °F - 63.9 °F 58% 29.88 in 10.0 mi West 11.5 mph 17.3 mph N/A   Clear
2:58 PM 82.4 °F 84.1 °F 64.8 °F 55% 29.86 in 8.0 mi West 10.4 mph 17.3 mph N/A   Partly Cloudy
3:58 PM 82.8 °F 83.8 °F 62.8 °F 51% 29.85 in 10.0 mi NW 11.5 mph - N/A   Scattered Clouds
4:58 PM 83.1 °F 83.5 °F 61.2 °F 47% 29.84 in 10.0 mi West 11.5 mph - N/A   Clear
5:58 PM 83.3 °F 83.7 °F 61.3 °F 47% 29.83 in 10.0 mi West 10.4 mph - N/A   Clear
6:58 PM 81.9 °F 82.5 °F 61.0 °F 49% 29.84 in 10.0 mi West 8.1 mph - N/A   Clear
7:58 PM 75.7 °F - 62.1 °F 62% 29.86 in 10.0 mi WNW 1.2 mph - N/A   Clear
8:58 PM 69.8 °F - 62.1 °F 76% 29.88 in 10.0 mi Calm Calm - N/A   Clear
9:58 PM 66.0 °F - 61.3 °F 85% 29.91 in 10.0 mi Calm Calm - N/A   Clear
10:58 PM 63.3 °F - 61.2 °F 93% 29.92 in 10.0 mi North 2.3 mph - N/A   Clear
11:58 PM 62.6 °F - 61.7 °F 97% 29.93 in 10.0 mi Calm Calm - N/A   Clear